Simultaneous Nadir Overpasses (SNOs) Predictions

Prediction of SNOs between METOP-A and TERRA Satellite Orbit:

Table of predicted SNOs for the next 14.0 days since TLE Epoch: 1/31/2016
Index Date (METOP-A) Time (METOP-A) Lat,Lon (METOP-A) SZA (METOP-A ) Date (TERRA) Time (TERRA) Lat,Lon (TERRA) SZA (TERRA ) Distance(km) Time Diff (sec)
1 02/02/2016 09:58:14 81.29, 77.22 100.47 02/02/2016 09:59:02 81.29, 77.11 100.47 1.94 48
2 02/02/2016 10:48:53 -81.30,-114.90 79.49 02/02/2016 10:48:28 -81.30,-114.98 79.50 1.35 25
3 02/05/2016 05:32:36 81.29, 143.82 99.66 02/05/2016 05:33:16 81.29, 143.67 99.66 2.57 40
4 02/05/2016 06:23:16 -81.30, -48.67 80.34 02/05/2016 06:22:43 -81.29, -48.78 80.37 1.97 33
5 02/08/2016 01:06:59 81.29,-150.00 98.77 02/08/2016 01:07:30 81.30,-149.84 98.80 2.79 31
6 02/08/2016 01:57:38 -81.30, 17.92 81.18 02/08/2016 01:56:57 -81.29, 17.74 81.23 3.25 41
7 02/10/2016 20:41:20 81.29, -83.46 97.88 02/10/2016 20:41:43 81.29, -83.42 97.90 0.84 23
8 02/10/2016 21:32:00 -81.29, 84.11 82.11 02/10/2016 21:31:10 -81.29, 84.18 82.12 1.32 50
9 02/13/2016 16:15:42 81.29, -16.94 96.97 02/13/2016 16:15:57 81.29, -17.05 96.96 1.83 15




NCC Satellite Simultaneous Nadir Overpasses (SNOs) Prediction Service
